Home > Weather > Drammen > Past weeks

Flag for Norway Past Weather in Drammen, Norway — Yesterday and Last 2 Weeks

Now
52 °F

Passing clouds.


Feels Like: 46 °F
Forecast: 51 / 64 °F
Wind: 18 mph from Northeast

Location: Statfjord B

Current Time: Jun 26, 2016 at 3:09:19 AM

Latest Report: Jun 26, 2016 at 2:20 AM


Visibility: N/A

Pressure: 30.01 "Hg

Humidity: 88%

Dew Point: 48 °F

Location of DrammenLocation

Past Weather in Drammen — Graph

°F

Drammen Temperature Yesterday

Maximum temperature yesterday: 54 °F (at 12:50 PM)
Minimum temperature yesterday: 50 °F (at 12:20 AM)
Average temperature yesterday: 52 °F

High & Low Weather Summary for the Past Weeks

 TemperatureHumidityPressure
High59 °F (Jun 12, 7:50 PM)100% (Jun 20, 11:50 AM)30.09 "Hg (Jun 20, 11:50 AM)
Low46 °F (Jun 11, 1:50 AM)51% (Jun 19, 7:20 PM)29.47 "Hg (Jun 20, 3:50 PM)
Average52 °F84%29.87 "Hg
* Reported Jun 11 1:20 AM — Jun 26 1:50 AM, Drammen, Weather by CustomWeather, © 2016

Note: Actual official high and low records may vary slightly from our data, if they occured in-between our weather recording intervals... More about our weather records

Advertising

Drammen Weather History for the Previous 24 Hours

Scroll right to see more
 ConditionsComfort  
Time TempWeatherWind HumidityBarometerVisibility
1:50 AM
Sun, Jun 26
52 °FPassing clouds.17 mph94%30.04 "HgN/A
1:20 AM52 °FPassing clouds.20 mph88%30.04 "HgN/A
12:50 AM52 °FPassing clouds.22 mph88%30.04 "HgN/A
12:20 AM52 °FPassing clouds.22 mph88%30.04 "HgN/A
11:50 PM
Sat, Jun 25
52 °FPassing clouds.21 mph88%30.07 "HgN/A
11:20 PM54 °FPartly sunny.21 mph82%30.07 "HgN/A
10:50 PM54 °FPartly sunny.21 mph82%30.07 "HgN/A
10:20 PM54 °FPartly sunny.21 mph82%30.07 "HgN/A
9:50 PM52 °FPartly sunny.20 mph88%30.07 "HgN/A
9:20 PM52 °FPartly sunny.21 mph88%30.07 "HgN/A
8:50 PM52 °FPartly sunny.18 mph88%30.07 "HgN/A
8:20 PM52 °FPartly sunny.18 mph88%30.07 "HgN/A
7:50 PM52 °FPartly sunny.18 mph88%30.07 "HgN/A
7:20 PM52 °FPartly sunny.17 mph88%30.07 "HgN/A
6:50 PM52 °FPartly sunny.16 mph88%30.09 "HgN/A
6:20 PM52 °FOvercast.16 mph88%30.09 "HgN/A
5:50 PM52 °FOvercast.16 mph88%30.09 "HgN/A
5:20 PM54 °FOvercast.16 mph82%30.09 "HgN/A
4:50 PM54 °FOvercast.14 mph82%30.09 "HgN/A
4:20 PM54 °FOvercast.17 mph82%30.09 "HgN/A
3:50 PM54 °FOvercast.16 mph82%30.09 "HgN/A
3:20 PM54 °FOvercast.16 mph82%30.09 "HgN/A
2:50 PM52 °FOvercast.15 mph88%30.09 "HgN/A
2:20 PM54 °FOvercast.15 mph82%30.09 "HgN/A
1:50 PM54 °FOvercast.14 mph82%30.09 "HgN/A
1:20 PM54 °FOvercast.18 mph82%30.09 "HgN/A
12:50 PM54 °FOvercast.16 mph82%30.09 "HgN/A
12:20 PM52 °FOvercast.16 mph88%30.09 "HgN/A
11:50 AM52 °FOvercast.17 mph88%30.09 "HgN/A
11:20 AM52 °FOvercast.18 mph88%30.09 "HgN/A
10:50 AM52 °FPartly sunny.18 mph82%30.09 "HgN/A
10:20 AM52 °FOvercast.15 mph88%30.09 "HgN/A
9:50 AM52 °FOvercast.14 mph88%30.09 "HgN/A
9:20 AM52 °FOvercast.14 mph88%30.09 "HgN/A
8:50 AM52 °FLow clouds.14 mph88%30.07 "HgN/A
8:20 AM50 °FLow clouds.16 mph94%30.07 "HgN/A
7:50 AM50 °FLow clouds.16 mph94%30.07 "HgN/A
7:20 AM50 °FLow clouds.18 mph94%30.04 "HgN/A
6:50 AM50 °FLow clouds.14 mph94%30.07 "HgN/A
6:20 AM50 °FLow clouds.14 mph94%30.07 "HgN/A
5:50 AM50 °FLow clouds.16 mph100%30.04 "HgN/A
5:20 AM50 °FLow clouds.16 mph100%30.04 "HgN/A
4:50 AM50 °FLow clouds.15 mph100%30.04 "HgN/A
4:20 AM50 °FLow clouds.15 mph94%30.04 "HgN/A
3:50 AM50 °FLow clouds.17 mph94%30.04 "HgN/A
3:20 AM50 °FLow clouds.17 mph94%30.04 "HgN/A
Weather by CustomWeather, © 2016

See weather overviewHow to use our weather pages